Weather History for VOTR - October, 2013

Change the Weather History Date:

Wednesday, October 16, 2013

  Actual Average Record
Temperature  
Mean Temperature 84 °F -  
Max Temperature 94 °F 84 °F 96 °F (2010)
Min Temperature 75 °F 75 °F 74 °F (2012)
Cooling Degree Days 20    
Growing Degree Days 34 (Base 50)    
Moisture  
Dew Point 75 °F    
Average Humidity 74    
Maximum Humidity 94    
Minimum Humidity 41    
Precipitation  
Precipitation 0.00 in - - ()
Sea Level Pressure  
Sea Level Pressure 29.76 in    
Wind  
Wind Speed 6 mph ()    
Max Wind Speed 12 mph    
Max Gust Speed -    
Visibility 2.9 miles    
Events Rain    
Averages and records for this station are not official NWS values.
T = Trace of Precipitation, MM = Missing Value Source: Averaged Metar Reports

Daily Weather History Graph

Daily Weather History Graph

Search for Another Location

Airport or City:

Trip Planner

Search our weather history database for the weather conditions in past years. The results will help you decide how hot, cold, wet, or windy it might be!

Date:

Astronomy

Oct. 16, 2013 Rise Set
Actual Time 6:04 AM IST 5:57 PM IST
Civil Twilight 5:42 AM IST 6:18 PM IST
Nautical Twilight 5:18 AM IST 6:43 PM IST
Astronomical Twilight 4:53 AM IST 7:07 PM IST
Moon 3:57 PM IST (10/16) 3:30 AM IST (10/16)
Length of Visible Light 12h 35m
Length of Day
11h 53m
Waxing Gibbous, 91% of the Moon is Illuminated
Oct 16
Waxing Gibbous
Oct 19
Full
Oct 27
Last Quarter
Nov 3
New
Nov 10
First Quarter

Hourly Weather History & Observations

Time (IST) Temp. Heat Index Dew Point Humidity Pressure Visibility Wind Dir Wind Speed Gust Speed Precip Events Conditions
12:10 AM 84.2 °F 94.1 °F 77.0 °F 79% 29.80 in 3.1 mi SE 4.6 mph - N/A   Haze
12:40 AM 84.2 °F 94.1 °F 77.0 °F 79% 29.80 in 3.1 mi SSE 5.8 mph - N/A   Haze
1:10 AM 84.2 °F 94.1 °F 77.0 °F 79% 29.80 in 3.1 mi WNW 6.9 mph - N/A   Haze
1:40 AM 84.2 °F 94.1 °F 77.0 °F 79% 29.77 in 3.1 mi WNW 9.2 mph - N/A   Haze
2:10 AM 82.4 °F 90.9 °F 77.0 °F 84% 29.77 in 2.5 mi WNW 9.2 mph - N/A Rain Light Rain
2:30 AM 77 °F - 74 °F 89% 29.78 in 2 mi WNW 6.9 mph - -   Haze
3:10 AM 77.0 °F - 75.2 °F 94% 29.77 in 3.1 mi WNW 6.9 mph - N/A   Haze
3:40 AM 77.0 °F - 75.2 °F 94% 29.77 in 3.1 mi WNW 6.9 mph - N/A   Haze
4:10 AM 77.0 °F - 75.2 °F 94% 29.77 in 3.1 mi NW 4.6 mph - N/A   Haze
4:40 AM 77.0 °F - 73.4 °F 89% 29.77 in 3.1 mi NW 4.6 mph - N/A   Haze
5:10 AM 77.0 °F - 73.4 °F 89% 29.77 in 3.1 mi West 5.8 mph - N/A   Haze
5:30 AM 76 °F - 74 °F 90% 29.79 in 2 mi WNW 5.8 mph - -  
5:40 AM 77.0 °F - 73.4 °F 89% 29.80 in 3.1 mi West 5.8 mph - N/A   Haze
6:10 AM 77.0 °F - 73.4 °F 89% 29.80 in 3.1 mi WNW 9.2 mph - N/A   Haze
6:40 AM 77.0 °F - 75.2 °F 94% 29.80 in 3.1 mi West 6.9 mph - N/A   Haze
7:10 AM 78.8 °F - 73.4 °F 83% 29.80 in 3.1 mi West 9.2 mph - N/A   Haze
8:30 AM 81 °F - 75 °F 78% 29.84 in 2 mi WNW 10.4 mph - -   Haze
11:30 AM 88 °F - 75 °F 57% 29.79 in 2 mi WNW 9.2 mph - -   Haze
12:10 PM 91.4 °F 102.5 °F 75.2 °F 59% 29.77 in 3.1 mi WNW 9.2 mph - N/A   Haze
12:40 PM 91.4 °F 100.1 °F 73.4 °F 55% 29.77 in 3.1 mi WNW 9.2 mph - N/A   Haze
1:10 PM 93.2 °F 102.4 °F 73.4 °F 52% 29.74 in 3.1 mi WNW 6.9 mph - N/A   Haze
1:40 PM 93.2 °F 102.4 °F 73.4 °F 52% 29.71 in 3.7 mi West 6.9 mph - N/A   Partly Cloudy
2:10 PM 95.0 °F 104.5 °F 73.4 °F 49% 29.71 in 3.7 mi West 6.9 mph - N/A   Partly Cloudy
2:30 PM 94 °F - 73 °F 41% 29.69 in 2 mi West 3.5 mph - -   Haze
2:40 PM 95.0 °F 107.4 °F 75.2 °F 53% 29.71 in 3.7 mi WSW 4.6 mph - N/A   Scattered Clouds
3:10 PM 93.2 °F 105.0 °F 75.2 °F 56% 29.68 in 3.7 mi North 6.9 mph - N/A   Mostly Cloudy
4:10 PM 89.6 °F 102.2 °F 77.0 °F 66% 29.68 in 3.1 mi NNE 4.6 mph - N/A   Haze
4:40 PM 87.8 °F 99.7 °F 77.0 °F 70% 29.68 in 3.1 mi NNW 9.2 mph - N/A   Haze
5:10 PM 86.0 °F 96.9 °F 77.0 °F 74% 29.68 in 3.1 mi NNW 8.1 mph - N/A   Haze
5:30 PM 88 °F - 75 °F 57% 29.69 in 2 mi NNW 3.5 mph - -   Haze
5:40 PM 86.0 °F 96.9 °F 77.0 °F 74% 29.71 in 3.1 mi North 6.9 mph - N/A   Haze
6:10 PM 86.0 °F 96.9 °F 77.0 °F 74% 29.71 in 3.1 mi ESE 3.5 mph - N/A   Haze
6:40 PM 86.0 °F 96.9 °F 77.0 °F 74% 29.74 in 3.1 mi ENE 5.8 mph - N/A   Haze
7:10 PM 86.0 °F 96.9 °F 77.0 °F 74% 29.77 in 3.1 mi East 8.1 mph - N/A   Haze
7:40 PM 86.0 °F 96.9 °F 77.0 °F 74% 29.77 in 3.1 mi ESE 8.1 mph - N/A   Haze
8:10 PM 84.2 °F 92.3 °F 75.2 °F 74% 29.77 in 3.1 mi East 10.4 mph - N/A   Haze
8:30 PM 84 °F - 75 °F 67% 29.77 in 2 mi East 10.4 mph - -   Partly Cloudy
8:40 PM 84.2 °F 92.3 °F 75.2 °F 74% 29.77 in 3.1 mi East 11.5 mph - N/A   Haze
9:10 PM 84.2 °F 92.3 °F 75.2 °F 74% 29.80 in 3.1 mi ESE 6.9 mph - N/A   Haze
9:40 PM 84.2 °F 92.3 °F 75.2 °F 74% 29.80 in 3.1 mi East 4.6 mph - N/A   Haze
10:10 PM 82.4 °F 89.5 °F 75.2 °F 79% 29.80 in 3.1 mi SSE 3.5 mph - N/A   Haze
10:40 PM 82.4 °F 89.5 °F 75.2 °F 79% 29.83 in 3.1 mi SSE 3.5 mph - N/A   Haze
11:10 PM 82.4 °F 89.5 °F 75.2 °F 79% 29.80 in 3.1 mi SSE 3.5 mph - N/A   Haze
11:30 PM 82 °F - 75 °F 74% 29.81 in 2 mi SE 3.5 mph - -   Partly Cloudy
11:40 PM 82.4 °F 89.5 °F 75.2 °F 79% 29.80 in 3.1 mi East 4.6 mph - N/A   Haze